Погода в Вежарий-Юрте

Россия / Республика Ингушетия     43°35′45″N   44°34′36″E
В апреле 2022 года жителям России запретили посещать сайт meteo.paraplan.net по решению Генеральной прокуратуры. Аудитория сайта уменьшилась в 10 раз. Владельцы сайта не видят смысла в поддержке погодного сервера в таких условиях. Сайт будет закрыт в октябре.
темп.,
°C
ветер,
м/с
пор.,
м/с
влажн.,
%
обл.,
%
осадки,
мм/ч
давл.,
гПа
погр.,
м
25 сентября, вс
вс2500:00+10ю228274 0.0 101816
03:00+11зсз1172100 0.0 102014
06:00+11св128097 0.0 1021109
09:00+11зсз1376100 0.0 1023473
12:00+16ссв225595 0.0 10211388
15:00+16ссв325152 0.0 10211298
18:00+14св015870 0.0 102212
21:00+15в1155100 0.0 102315
26 сентября, пн
пн2600:00+12вюв11630 0.0 102310
03:00+11юв11684 0.0 102311
06:00+10юв11730 0.0 102311
09:00+16всв34530 0.0 1022842
12:00+20в55400 0.0 10201363
15:00+21в45350 0.0 10181446
18:00+17в22455 0.0 101820
21:00+15юв376555 0.0 1018162
27 сентября, вт
вт2700:00+14юв22814 0.0 101727
03:00+13ююв11820 0.0 101610
06:00+12ю11825 0.0 101510
09:00+18всв125692 0.0 1014389
12:00+23всв3340100 0.0 1012861
15:00+24в3335100 0.0 10101169
18:00+20в3350100 0.0 101123
21:00+18вюв2252100 0.0 101022
28 сентября, ср
ср2800:00+16ююв1160100 0.0 100912
03:00+15юз116230 0.0 100811
06:00+14ююз1160100 0.0 100911
09:00+20зюз014155 0.0 1008256
12:00+26с222839 0.0 1007683
15:00+26с333116 0.0 1008998
18:00+21ссв1148100 0.0 100911
21:00+20ююв2254100 0.0 100911
29 сентября, чт
чт2900:00+18зюз115674 0.0 101011
03:00+18юз225393 0.0 101115
06:00+15зюз225658 0.0 101223
09:00+20зсз224629 0.0 1013420
12:00+24с333412 0.0 10121479
15:00+26с223160 0.0 10132099
18:00+22с1140100 0.3 101521
21:00+20сз114684 0.4 101626